Location: Bishopstone
(51.0167°N, 1.9000°W)
Time: 04:54:22
(UTC+00:00)

BREEZE-M DEB (TANK) - Pass Details

Date: 16 September 2019
Orbit: 676 x 22252 km, 51.1° (Epoch: 15 October)

Event Time Altitude Azimuth Distance (km) Brightness Sun altitude
Rises 21:14:13 0° 284° (WNW) 3,175 7.2 -25.6°
Reaches altitude 10° 21:15:49 10° 283° (WNW) 2,448 6.4 -25.8°
Maximum altitude 21:20:40 75° 198° (SSW) 1,401 4.1 -26.4°
Enters shadow 21:24:18 42° 124° (SE) 2,537 5.1 -26.8°
